Tracking 29967 objects as of 6-Dec-2024
HD Live streaming from Space Station
objects crossing your sky now

CZ-4 DEB

Track CZ-4 DEB now!
10-day predictions


NORAD ID: 29043
Int'l Code: 2004-035K
Perigee: 556.7 km
Apogee: 557.9 km
Inclination: 97.6 °
Period: 95.7 minutes
Semi major axis: 6928 km
RCS: 0.0201 m2 (small)
Launch date: September 8, 2004
Source: People's Republic of China (PRC)
Launch site: Taiyaun Space Center, China (TSC)

Note: This is SATELLITE DEBRIS
Your satellite tracking list
Your tracking list is empty




NASA's NSSDC Master Catalog

Two Line Element Set (TLE):
1 29043U 04035K   24340.29900302  .00005441  00000-0  38325-3 0  9996
2 29043  97.6173 358.6293 0000872 160.4168 199.7092 15.05434107 35186
Source of the keplerian elements: AFSPC